Orbital Elements at Epoch 2459200.5 (2020-Dec-17.0) TDB
Reference: JPL 29 (heliocentric ecliptic J2000)
Element | Value | Uncertainty (1-sigma) | Units |
e | .1560139663271956 | 3.971e-08 | |
a | 2.798091044051015 | 1.4599e-08 | au |
q | 2.361549762124012 | 1.1289e-07 | au |
i | 9.586130559389398 | 4.3505e-06 | deg |
node | 47.17990658392664 | 2.7734e-05 | deg |
peri | 266.9473116399823 | 3.0826e-05 | deg |
M | 267.1381857198303 | 1.5078e-05 | deg |
tp | 2459641.487066708356 (2022-Mar-02.98706671) | 7.2412e-05 | TDB |
period | 1709.586930275061 4.68 | 1.3379e-05 3.663e-08 | d yr |
n | .2105771830754921 | 1.648e-09 | deg/d |
Q | 3.234632325978018 | 1.6876e-08 | au |
|
| | Orbit Determination Parameters
Additional Information
|